AirNav   Duncan Aviation - Near you to keep you flying
 
 645 users online  

34TS Canyon Lake Airport
Canyon Lake, Texas, USA

GOING TO CANYON LAKE?


FAA INFORMATION EFFECTIVE 16 JUNE 2022

Location

FAA Identifier: 34TS
Lat/Long: 29-54-56.7800N 098-14-51.0500W
29-54.946333N 098-14.850833W
29.9157722,-98.2475139
(estimated)
Elevation: 940 ft. / 286.5 m (surveyed)
Variation: 08E (1980)
From city: 2 miles NE of CANYON LAKE, TX
Time zone: UTC -5 (UTC -6 during Standard Time)
Zip code: 78133

Airport Operations

Airport use: Private use. Permission required prior to landing
Activation date: 11/1986
Control tower: no
ARTCC: HOUSTON CENTER
FSS: SAN ANGELO FLIGHT SERVICE STATION
Attendance: UNATNDD
Wind indicator: yes
Segmented circle: no
Landing fee: yes

Airport Communications

WX ASOS at BAZ (16 nm SE): 119.325 (830-629-7979)

Nearby radio navigation aids

VOR radial/distance  VOR name  Freq  Var
SATr026/19.7SAN ANTONIO VORTAC116.8008E
RNDr360/23.9RANDOLPH VORTAC112.3005E
STVr118/29.5STONEWALL VORTAC113.8008E

Airport Services

Parking: tiedowns

Runway Information

Runway 1/19

Dimensions: 2600 x 45 ft. / 792 x 14 m
Surface: asphalt
RUNWAY 1  RUNWAY 19
Traffic pattern: rightleft
Obstructions: 150 ft. hill, lighted, 3300 ft. from runwaynone

Airport Ownership and Management from official FAA records

Ownership: Privately-owned
Owner: CANYON LAKE AP COUNCIL OF CO-OWNERS
900 HANCOCK ROAD
CANYON LAKE, TX 78133
Phone 512-749-2913
Manager: RANDY SMITH
900 HANCOCK ROAD
CANYON LAKE, TX 78133
Phone 512-749-2913

Airport Operational Statistics

Aircraft based on the field: 10
Single engine airplanes: 10
    
Aircraft operations: 10/year
100% local general aviation

Additional Remarks

DEER ON RY.
FOR CD CTC SAN ANTONIO APCH AT 210-805-5516.

Instrument Procedures

There are no published instrument procedures at 34TS.

Some nearby airports with instrument procedures:

KBAZ - New Braunfels National Airport (16 nm SE)
KHYI - San Marcos Regional Airport (20 nm E)
KRND - Randolph Air Force Base (23 nm S)
KSAT - San Antonio International Airport (26 nm SW)
5C1 - Boerne Stage Field Airport (26 nm SW)
 
Loc | Ops | Rwys | IFR | FBO | Links
Com | Nav | Svcs | Stats | Notes
Area around 34TS (Canyon Lake Airport)
 
Road maps at: MapQuest Bing Google
 
Aerial photo
WARNING: Photo may not be current or correct
Aerial photo of 34TS (Canyon Lake Airport)
Photo courtesy of airport manager, Steve Dunk
Taken in February 2003

Do you have a better or more recent aerial photo of Canyon Lake Airport that you would like to share? If so, please send us your photo.

 
Sectional chart

 
Airport distance calculator
Flying to Canyon Lake Airport? Find the distance to fly.

From to 34TS

Sunrise and sunset
Times for 05-Jul-2022
 Local
(UTC-5)
 Zulu
(UTC)
Morning civil twilight06:1111:11
Sunrise06:3811:38
Sunset20:3701:37
Evening civil twilight21:0402:04

Current date and time
Zulu (UTC)  05-Jul-2022 08:06:03
Local (UTC-5)  05-Jul-2022 03:06:03
 
METAR
KBAZ 
16nm SE 
050751Z AUTO 17010KT 10SM BKN016 26/23 A3003 RMK AO2 SLP157 T02610233
KHYI 
20nm E 
050756Z AUTO 20005KT 10SM OVC013 26/25 A3005 RMK AO2 SLP162 T02560250
KRND 
24nm S 
050756Z AUTO 16005KT 10SM OVC014 26/24 A3002 RMK AO2 SLP156 T02550242
KSAT 
26nm SW 
050751Z 15008KT 10SM SCT017 SCT250 26/23 A3004 RMK AO2 SLP152 T02610228
K5C1 
26nm SW 
050755Z AUTO 17008KT 10SM CLR 23/21 A3006 RMK AO1
KSEQ 
27nm SE 
050756Z AUTO 18009KT 10SM OVC012 25/24 A3001 RMK AO2 OVC V BKN SLP156 T02510240 $
TAF
NOTAMs
Click for the latest NOTAMs
NOTAMs are issued by the DoD/FAA and will open in a separate window not controlled by AirNav.

 

 
 

Would you like to see your business listed on this page?

 If your business provides an interesting product or service to pilots, flight crews, aircraft, or users of the Canyon Lake Airport, you should consider listing it here.  To start the listing process, click on the button below
 
Add a business
 

Other Pages about Canyon Lake Airport

Update a link
 
Copyright © AirNav, LLC. All rights reserved. Privacy Policy  Contact